Location: Bakov nad Jizerou
(50.4784°N, 14.9394°E)
Time: 21:09:15
(UTC+00:00)

Cosmos 1844 - Pass Details

Date: 16 June 2021
Orbit: 824 x 867 km, 70.9° (Epoch: 23 July)

Event Time Altitude Azimuth Distance (km) Brightness Sun altitude
Rises 21:18:44 0° 326° (NW) 3,372 8.7 -12.8°
Reaches altitude 10° 21:21:16 10° 320° (NW) 2,436 7.4 -12.9°
Maximum altitude 21:26:29 43° 251° (WSW) 1,151 4.4 -13.2°
Enters shadow 21:30:39 16° 185° (S) 2,062 5.2 -13.5°
